RADUGA 18 [-]

Last updated on Tue Jun 27 2023 00:03:02 GMT+0000 (Coordinated Universal Time)

1 16497U 86007A 23176.99771723 .00000052 00000+0 00000+0 0 9997 2 16497 12.2882 328.7235 0076489 172.7380 191.3844 0.98810859135179

Satellite not in orbit

RADUGA 18 [-]